Voltar ao catálogo

KUIPER-00040

AtivoComunicaçõesLEO
NORAD 64501·PAYLOAD·🇺🇸 United States

Lançado Jun 23, 2025 de Cape Canaveral Space Force Station

Loading…

Próximas Passagens (próximas 24 horas)

TLE

AtualizadoSource: CelesTrak SupGP

Época: Sep 14, 2026, 19:04 UTC

1 64501C 25134B   26257.79509259 -.00002822  00000+0 -36941-3 0  2577
2 64501  51.8964 126.9552 0001175 100.3087 210.4396 14.79934501    13

Acompanhe KUIPER-00040 em tempo real com AllMySat

Download on the App Store